START_TIME,STEP,MOV.,AL01,t_acc.,AL02,t_acc.,E37,t_acc.,H21,t_acc.
1979-02-28 18:00:23.740 ,0,1,0.,24.0,0.,24.0,0.,24.0,0.,24.0
1979-02-28 18:00:47.740 ,0,1,0.,24.0,0.,24.0,0.,24.0,0.,24.0
1979-02-28 18:01:11.740 ,1,1,0.,24.0,0.,24.0,1.,24.0,0.,24.0
1979-02-28 18:01:35.740 ,2,1,0.,24.0,0.,24.0,0.,24.0,0.,24.0
1979-02-28 18:01:59.740 ,3,1,1.,24.0,0.,24.0,0.,24.0,0.,24.0
1979-02-28 18:02:23.740 ,4,1,0.,24.0,0.,24.0,0.,24.0,0.,24.0
1979-02-28 18:02:47.740 ,5,1,1.,24.0,0.,24.0,1.,24.0,0.,24.0
1979-02-28 18:03:11.740 ,6,1,0.,24.0,0.,24.0,0.,24.0,0.,24.0
1979-02-28 18:03:35.740 ,7,1,4.,24.0,1.,24.0,0.,24.0,0.,24.0
1979-02-28 18:03:59.740 ,7,1,7.,24.0,0.,24.0,0.,24.0,0.,24.0
1979-02-28 18:04:23.740 ,6,1,7.,24.0,0.,24.0,0.,24.0,0.,24.0
1979-02-28 18:04:47.740 ,5,1,0.,24.0,0.,24.0,0.,24.0,0.,24.0
1979-02-28 18:05:11.740 ,4,1,0.,24.0,0.,24.0,0.,24.0,0.,24.0
1979-02-28 18:05:35.740 ,3,1,1.,24.0,0.,24.0,0.,24.0,0.,24.0
1979-02-28 18:05:59.740 ,2,1,0.,24.0,0.,24.0,2.,24.0,0.,24.0
1979-02-28 18:06:23.740 ,1,1,1.,24.0,0.,24.0,0.,24.0,0.,24.0
1979-02-28 18:06:47.740 ,0,1,0.,24.0,0.,24.0,0.,24.0,0.,24.0
1979-02-28 18:07:11.740 ,0,1,0.,24.0,0.,24.0,0.,24.0,0.,24.0
1979-02-28 18:07:35.740 ,1,1,0.,24.0,0.,24.0,1.,24.0,0.,24.0
1979-02-28 18:07:59.740 ,2,1,0.,24.0,0.,24.0,0.,24.0,0.,24.0
1979-02-28 18:08:23.740 ,3,1,0.,24.0,0.,24.0,1.,24.0,0.,24.0
1979-02-28 18:08:47.740 ,4,1,0.,24.0,0.,24.0,0.,24.0,0.,24.0
1979-02-28 18:09:11.740 ,5,1,0.,24.0,0.,24.0,0.,24.0,0.,24.0
1979-02-28 18:09:35.740 ,6,1,0.,24.0,0.,24.0,0.,24.0,0.,24.0
1979-02-28 18:09:59.740 ,7,1,2.,24.0,0.,24.0,0.,24.0,0.,24.0
1979-02-28 18:10:23.740 ,7,1,8.,24.0,0.,24.0,1.,24.0,0.,24.0
1979-02-28 18:10:47.740 ,6,1,4.,24.0,0.,24.0,0.,24.0,0.,24.0
1979-02-28 18:11:11.740 ,5,1,0.,24.0,0.,24.0,1.,24.0,0.,24.0
1979-02-28 18:11:35.740 ,4,1,1.,24.0,0.,24.0,0.,24.0,0.,24.0
1979-02-28 18:11:59.740 ,3,1,0.,24.0,0.,24.0,0.,24.0,0.,24.0
1979-02-28 18:12:23.740 ,2,1,0.,24.0,0.,24.0,0.,24.0,0.,24.0
1979-02-28 18:12:47.740 ,1,1,1.,24.0,0.,24.0,0.,24.0,0.,24.0
1979-02-28 18:13:11.740 ,0,1,0.,24.0,0.,24.0,0.,24.0,0.,24.0
1979-02-28 18:13:35.740 ,0,1,0.,24.0,0.,24.0,1.,24.0,0.,24.0
1979-02-28 18:13:59.740 ,1,1,0.,24.0,0.,24.0,0.,24.0,0.,24.0
1979-02-28 18:14:23.740 ,2,1,0.,24.0,0.,24.0,0.,24.0,0.,24.0
1979-02-28 18:14:47.740 ,3,1,2.,24.0,0.,24.0,0.,24.0,0.,24.0
1979-02-28 18:15:11.740 ,4,1,1.,24.0,0.,24.0,0.,24.0,0.,24.0
1979-02-28 18:15:35.740 ,5,1,0.,24.0,0.,24.0,0.,24.0,0.,24.0
1979-02-28 18:15:59.740 ,0,0,0.,24.0,0.,24.0,0.,24.0,0.,24.0
1979-02-28 18:16:23.740 ,0,0,3.,24.0,0.,24.0,0.,24.0,0.,24.0
1979-02-28 18:16:47.740 ,7,1,9.,24.0,0.,24.0,1.,24.0,0.,24.0
1979-02-28 18:17:11.740 ,6,1,6.,24.0,0.,24.0,0.,24.0,0.,24.0
1979-02-28 18:17:35.740 ,5,1,0.,24.0,0.,24.0,0.,24.0,0.,24.0
1979-02-28 18:17:59.740 ,4,1,0.,24.0,0.,24.0,0.,24.0,0.,24.0
1979-02-28 18:18:23.740 ,3,1,0.,24.0,0.,24.0,0.,24.0,0.,24.0
1979-02-28 18:18:47.740 ,2,1,0.,24.0,0.,24.0,0.,24.0,0.,24.0
1979-02-28 18:19:11.740 ,1,1,0.,24.0,0.,24.0,0.,24.0,0.,24.0
1979-02-28 18:19:35.740 ,0,1,0.,24.0,0.,24.0,0.,24.0,0.,24.0
1979-02-28 18:19:59.740 ,0,1,0.,24.0,0.,24.0,0.,24.0,0.,24.0
1979-02-28 18:20:23.740 ,1,1,1.,24.0,0.,24.0,0.,24.0,0.,24.0
1979-02-28 18:20:47.740 ,2,1,0.,24.0,0.,24.0,0.,24.0,0.,24.0
1979-02-28 18:21:11.740 ,3,1,0.,24.0,0.,24.0,1.,24.0,0.,24.0
1979-02-28 18:21:35.740 ,4,1,0.,24.0,0.,24.0,2.,24.0,0.,24.0
1979-02-28 18:21:59.740 ,5,1,0.,24.0,2.,24.0,0.,24.0,0.,24.0
1979-02-28 18:22:23.740 ,6,1,0.,24.0,0.,24.0,0.,24.0,0.,24.0
1979-02-28 18:22:47.740 ,7,1,6.,24.0,0.,24.0,0.,24.0,0.,24.0
1979-02-28 18:23:11.740 ,7,1,9.,24.0,0.,24.0,0.,24.0,0.,24.0
1979-02-28 18:23:35.740 ,6,1,6.,24.0,0.,24.0,0.,24.0,0.,24.0
1979-02-28 18:23:59.740 ,5,1,0.,24.0,1.,24.0,0.,24.0,0.,24.0
1979-02-28 18:24:23.740 ,4,1,0.,24.0,0.,24.0,0.,24.0,0.,24.0
1979-02-28 18:24:47.740 ,3,1,0.,24.0,0.,24.0,1.,24.0,0.,24.0
1979-02-28 18:25:11.740 ,2,1,1.,24.0,0.,24.0,0.,24.0,0.,24.0
1979-02-28 18:25:35.740 ,1,1,0.,24.0,0.,24.0,0.,24.0,0.,24.0
1979-02-28 18:25:59.740 ,0,1,1.,24.0,0.,24.0,0.,24.0,0.,24.0
1979-02-28 18:26:23.740 ,0,1,0.,24.0,0.,24.0,1.,24.0,0.,24.0
1979-02-28 18:26:47.740 ,1,1,0.,24.0,0.,24.0,0.,24.0,0.,24.0
1979-02-28 18:27:11.740 ,2,1,0.,24.0,0.,24.0,2.,24.0,0.,24.0
1979-02-28 18:27:35.740 ,3,1,1.,24.0,1.,24.0,0.,24.0,0.,24.0
1979-02-28 18:27:59.740 ,4,1,0.,24.0,0.,24.0,0.,24.0,0.,24.0
1979-02-28 18:28:23.740 ,5,1,0.,24.0,0.,24.0,0.,24.0,0.,24.0
1979-02-28 18:28:47.740 ,6,1,0.,24.0,0.,24.0,2.,24.0,0.,24.0
1979-02-28 18:29:11.740 ,7,1,4.,24.0,0.,24.0,0.,24.0,0.,24.0
1979-02-28 18:29:35.740 ,7,1,5.,24.0,0.,24.0,0.,24.0,0.,24.0
1979-02-28 18:29:59.740 ,6,1,7.,24.0,0.,24.0,0.,24.0,0.,24.0
1979-02-28 18:30:23.740 ,5,1,0.,24.0,1.,24.0,0.,24.0,0.,24.0
1979-02-28 18:30:47.740 ,4,1,0.,24.0,1.,24.0,0.,24.0,0.,24.0
1979-02-28 18:31:11.740 ,3,1,0.,24.0,0.,24.0,1.,24.0,0.,24.0
1979-02-28 18:31:35.740 ,2,1,1.,24.0,0.,24.0,1.,24.0,0.,24.0
1979-02-28 18:31:59.740 ,1,1,0.,24.0,0.,24.0,0.,24.0,0.,24.0
1979-02-28 18:32:23.740 ,0,1,0.,24.0,0.,24.0,0.,24.0,0.,24.0
1979-02-28 18:32:47.740 ,0,1,1.,24.0,0.,24.0,0.,24.0,0.,24.0
1979-02-28 18:33:11.740 ,1,1,1.,24.0,0.,24.0,0.,24.0,0.,24.0
1979-02-28 18:33:35.740 ,2,1,0.,24.0,1.,24.0,0.,24.0,0.,24.0
1979-02-28 18:33:59.740 ,3,1,1.,24.0,0.,24.0,0.,24.0,0.,24.0
1979-02-28 18:34:23.740 ,4,1,1.,24.0,0.,24.0,0.,24.0,0.,24.0
1979-02-28 18:34:47.740 ,5,1,0.,24.0,0.,24.0,1.,24.0,0.,24.0
1979-02-28 18:35:11.740 ,6,1,0.,24.0,0.,24.0,0.,24.0,0.,24.0
1979-02-28 18:35:35.740 ,7,1,4.,24.0,0.,24.0,0.,24.0,0.,24.0
1979-02-28 18:35:59.740 ,7,1,11.,24.0,0.,24.0,0.,24.0,0.,24.0
1979-02-28 18:36:23.740 ,6,1,13.,24.0,0.,24.0,1.,24.0,0.,24.0
1979-02-28 18:36:47.740 ,5,1,0.,24.0,0.,24.0,0.,24.0,0.,24.0
1979-02-28 18:37:11.740 ,4,1,0.,24.0,0.,24.0,0.,24.0,0.,24.0
1979-02-28 18:37:35.740 ,3,1,0.,24.0,0.,24.0,0.,24.0,0.,24.0
1979-02-28 18:37:59.740 ,2,1,0.,24.0,0.,24.0,0.,24.0,0.,24.0
1979-02-28 18:38:23.740 ,1,1,0.,24.0,0.,24.0,0.,24.0,0.,24.0
1979-02-28 18:38:47.740 ,0,1,0.,24.0,0.,24.0,0.,24.0,0.,24.0
1979-02-28 18:39:11.740 ,0,1,2.,24.0,0.,24.0,0.,24.0,0.,24.0
1979-02-28 18:39:35.740 ,1,1,0.,24.0,0.,24.0,0.,24.0,0.,24.0
1979-02-28 18:39:59.740 ,2,1,0.,24.0,0.,24.0,0.,24.0,0.,24.0
1979-02-28 18:40:23.740 ,3,1,1.,24.0,0.,24.0,1.,24.0,0.,24.0
1979-02-28 18:40:47.740 ,4,1,0.,24.0,0.,24.0,0.,24.0,0.,24.0
1979-02-28 18:41:11.740 ,5,1,0.,24.0,0.,24.0,3.,24.0,0.,24.0
1979-02-28 18:41:35.740 ,6,1,1.,24.0,0.,24.0,0.,24.0,0.,24.0
1979-02-28 18:41:59.740 ,7,1,3.,24.0,0.,24.0,0.,24.0,0.,24.0
1979-02-28 18:42:23.740 ,7,1,4.,24.0,0.,24.0,0.,24.0,0.,24.0
1979-02-28 18:42:47.740 ,6,1,10.,24.0,0.,24.0,0.,24.0,0.,24.0
1979-02-28 18:43:11.740 ,5,1,0.,24.0,0.,24.0,0.,24.0,0.,24.0
1979-02-28 18:43:35.740 ,4,1,1.,24.0,0.,24.0,0.,24.0,0.,24.0
1979-02-28 18:43:59.740 ,3,1,0.,24.0,0.,24.0,0.,24.0,0.,24.0
1979-02-28 18:44:23.740 ,2,1,0.,24.0,0.,24.0,1.,24.0,0.,24.0
1979-02-28 18:44:47.740 ,1,1,0.,24.0,1.,24.0,0.,24.0,0.,24.0
1979-02-28 18:45:11.740 ,0,1,0.,24.0,0.,24.0,1.,24.0,0.,24.0
1979-02-28 18:45:35.740 ,0,1,0.,24.0,0.,24.0,1.,24.0,0.,24.0
1979-02-28 18:45:59.740 ,1,1,0.,24.0,0.,24.0,0.,24.0,0.,24.0
1979-02-28 18:46:23.740 ,2,1,1.,24.0,0.,24.0,0.,24.0,0.,24.0
1979-02-28 18:46:47.740 ,3,1,0.,24.0,0.,24.0,0.,24.0,0.,24.0
1979-02-28 18:47:11.740 ,4,1,0.,24.0,0.,24.0,0.,24.0,0.,24.0
1979-02-28 18:47:35.740 ,5,1,0.,24.0,0.,24.0,1.,24.0,0.,24.0
1979-02-28 18:47:59.740 ,6,1,0.,24.0,0.,24.0,0.,24.0,0.,24.0
1979-02-28 18:48:23.740 ,7,1,3.,24.0,0.,24.0,1.,24.0,0.,24.0
1979-02-28 18:48:47.740 ,7,1,9.,24.0,0.,24.0,0.,24.0,0.,24.0
1979-02-28 18:49:11.740 ,6,1,5.,24.0,0.,24.0,0.,24.0,0.,24.0
1979-02-28 18:49:35.740 ,5,1,0.,24.0,0.,24.0,0.,24.0,0.,24.0
1979-02-28 18:49:59.740 ,4,1,0.,24.0,0.,24.0,2.,24.0,0.,24.0
1979-02-28 18:50:23.740 ,3,1,0.,24.0,0.,24.0,0.,24.0,0.,24.0
1979-02-28 18:50:47.740 ,2,1,1.,24.0,0.,24.0,0.,24.0,0.,24.0
1979-02-28 18:51:11.740 ,1,1,0.,24.0,0.,24.0,0.,24.0,0.,24.0
1979-02-28 18:51:35.740 ,0,1,1.,24.0,0.,24.0,0.,24.0,0.,24.0
1979-02-28 18:51:59.740 ,0,1,0.,24.0,0.,24.0,0.,24.0,0.,24.0
1979-02-28 18:52:23.740 ,1,1,0.,24.0,1.,24.0,0.,24.0,0.,24.0
1979-02-28 18:52:47.740 ,2,1,0.,24.0,0.,24.0,1.,24.0,0.,24.0
1979-02-28 18:53:11.740 ,3,1,0.,24.0,1.,24.0,0.,24.0,0.,24.0
1979-02-28 18:53:35.740 ,4,1,2.,24.0,0.,24.0,0.,24.0,0.,24.0
1979-02-28 18:53:59.740 ,5,1,0.,24.0,0.,24.0,1.,24.0,0.,24.0
1979-02-28 18:58:23.740 ,0,0,1.,24.0,0.,24.0,0.,24.0,0.,24.0
1979-02-28 18:58:47.740 ,1,1,0.,24.0,0.,24.0,0.,24.0,0.,24.0
1979-02-28 18:59:11.740 ,2,1,1.,24.0,0.,24.0,0.,24.0,0.,24.0
1979-02-28 18:59:35.740 ,3,1,2.,24.0,0.,24.0,0.,24.0,0.,24.0
1979-02-28 18:59:59.740 ,4,1,0.,24.0,0.,24.0,0.,24.0,0.,24.0
1979-02-28 19:00:23.740 ,5,1,0.,24.0,1.,24.0,0.,24.0,0.,24.0
1979-02-28 19:00:47.740 ,6,1,0.,24.0,1.,24.0,0.,24.0,0.,24.0
1979-02-28 19:01:11.740 ,7,1,3.,24.0,0.,24.0,1.,24.0,0.,24.0
1979-02-28 19:01:35.740 ,7,1,13.,24.0,0.,24.0,0.,24.0,0.,24.0
1979-02-28 19:01:59.740 ,6,1,6.,24.0,0.,24.0,1.,24.0,0.,24.0
1979-02-28 19:02:23.740 ,5,1,0.,24.0,0.,24.0,0.,24.0,0.,24.0
1979-02-28 19:02:47.740 ,4,1,0.,24.0,0.,24.0,0.,24.0,0.,24.0
1979-02-28 19:03:11.740 ,3,1,0.,24.0,0.,24.0,0.,24.0,0.,24.0
1979-02-28 19:03:35.740 ,2,1,0.,24.0,1.,24.0,0.,24.0,0.,24.0
1979-02-28 19:03:59.740 ,1,1,1.,24.0,0.,24.0,0.,24.0,0.,24.0
1979-02-28 19:04:23.740 ,0,1,1.,24.0,0.,24.0,0.,24.0,0.,24.0
1979-02-28 19:04:47.740 ,0,1,1.,24.0,0.,24.0,1.,24.0,0.,24.0
1979-02-28 19:05:11.740 ,1,1,1.,24.0,0.,24.0,0.,24.0,0.,24.0
1979-02-28 19:05:35.740 ,2,1,0.,24.0,1.,24.0,0.,24.0,0.,24.0
1979-02-28 19:05:59.740 ,3,1,0.,24.0,0.,24.0,0.,24.0,0.,24.0
1979-02-28 19:06:23.740 ,4,1,0.,24.0,0.,24.0,0.,24.0,0.,24.0
1979-02-28 19:06:47.740 ,5,1,0.,24.0,0.,24.0,1.,24.0,0.,24.0
1979-02-28 19:07:11.740 ,6,1,0.,24.0,0.,24.0,0.,24.0,0.,24.0
1979-02-28 19:07:35.740 ,7,1,0.,24.0,0.,24.0,0.,24.0,0.,24.0
1979-02-28 19:07:59.740 ,7,1,11.,24.0,0.,24.0,0.,24.0,0.,24.0
1979-02-28 19:08:23.740 ,6,1,5.,24.0,0.,24.0,0.,24.0,0.,24.0
1979-02-28 19:08:47.740 ,5,1,0.,24.0,0.,24.0,0.,24.0,0.,24.0
1979-02-28 19:09:11.740 ,4,1,0.,24.0,0.,24.0,0.,24.0,0.,24.0
1979-02-28 19:09:35.740 ,3,1,0.,24.0,0.,24.0,0.,24.0,0.,24.0
1979-02-28 19:09:59.740 ,2,1,0.,24.0,0.,24.0,0.,24.0,0.,24.0
1979-02-28 19:10:23.740 ,1,1,1.,24.0,0.,24.0,0.,24.0,0.,24.0
1979-02-28 19:10:47.740 ,0,1,0.,24.0,0.,24.0,0.,24.0,0.,24.0
1979-02-28 19:11:11.740 ,0,1,2.,24.0,0.,24.0,0.,24.0,0.,24.0
1979-02-28 19:11:35.740 ,1,1,1.,24.0,0.,24.0,0.,24.0,0.,24.0
1979-02-28 19:11:59.740 ,2,1,1.,24.0,0.,24.0,0.,24.0,0.,24.0
1979-02-28 19:12:23.740 ,3,1,0.,24.0,0.,24.0,0.,24.0,0.,24.0
1979-02-28 19:13:35.740 ,0,0,0.,24.0,0.,24.0,0.,24.0,0.,24.0
1979-02-28 19:13:59.740 ,7,1,3.,24.0,0.,24.0,0.,24.0,0.,24.0
1979-02-28 19:14:23.740 ,7,1,13.,24.0,0.,24.0,0.,24.0,0.,24.0
1979-02-28 19:14:47.740 ,6,1,4.,24.0,0.,24.0,0.,24.0,0.,24.0
1979-02-28 19:15:11.740 ,5,1,0.,24.0,0.,24.0,1.,24.0,0.,24.0
1979-02-28 19:15:35.740 ,4,1,0.,24.0,0.,24.0,0.,24.0,0.,24.0
1979-02-28 19:15:59.740 ,3,1,0.,24.0,0.,24.0,0.,24.0,0.,24.0
1979-02-28 19:16:23.740 ,2,1,0.,24.0,0.,24.0,0.,24.0,0.,24.0
1979-02-28 19:16:47.740 ,1,1,1.,24.0,0.,24.0,0.,24.0,0.,24.0
1979-02-28 19:17:11.740 ,0,1,2.,24.0,0.,24.0,0.,24.0,0.,24.0
1979-02-28 19:17:35.740 ,0,1,1.,24.0,1.,24.0,0.,24.0,0.,24.0
1979-02-28 19:17:59.740 ,1,1,0.,24.0,0.,24.0,1.,24.0,0.,24.0
1979-02-28 19:18:23.740 ,2,1,1.,24.0,0.,24.0,1.,24.0,0.,24.0
1979-02-28 19:18:47.740 ,3,1,2.,24.0,0.,24.0,1.,24.0,0.,24.0
1979-02-28 19:19:11.740 ,4,1,0.,24.0,0.,24.0,0.,24.0,0.,24.0
1979-02-28 19:19:35.740 ,5,1,0.,24.0,0.,24.0,0.,24.0,0.,24.0
1979-02-28 19:19:59.740 ,6,1,0.,24.0,0.,24.0,0.,24.0,0.,24.0
1979-02-28 19:20:23.740 ,7,1,3.,24.0,1.,24.0,0.,24.0,0.,24.0
1979-02-28 19:20:47.740 ,7,1,14.,24.0,0.,24.0,0.,24.0,0.,24.0
1979-02-28 19:21:11.740 ,6,1,9.,24.0,0.,24.0,1.,24.0,0.,24.0
1979-02-28 19:21:35.740 ,5,1,0.,24.0,0.,24.0,1.,24.0,0.,24.0
1979-02-28 19:21:59.740 ,4,1,0.,24.0,0.,24.0,0.,24.0,0.,24.0
1979-02-28 19:22:23.740 ,3,1,0.,24.0,0.,24.0,0.,24.0,0.,24.0
1979-02-28 19:22:47.740 ,2,1,0.,24.0,0.,24.0,0.,24.0,0.,24.0
1979-02-28 19:23:11.740 ,0,0,0.,24.0,0.,24.0,1.,24.0,0.,24.0
1979-02-28 19:23:35.740 ,0,1,1.,24.0,1.,24.0,0.,24.0,0.,24.0
1979-02-28 19:23:59.740 ,0,1,0.,24.0,0.,24.0,0.,24.0,0.,24.0
1979-02-28 19:24:23.740 ,1,1,0.,24.0,0.,24.0,0.,24.0,0.,24.0
1979-02-28 19:24:47.740 ,2,1,1.,24.0,0.,24.0,0.,24.0,0.,24.0
1979-02-28 19:25:11.740 ,3,1,0.,24.0,0.,24.0,0.,24.0,0.,24.0
1979-02-28 19:25:35.740 ,4,1,1.,24.0,0.,24.0,0.,24.0,0.,24.0
1979-02-28 19:25:59.740 ,5,1,0.,24.0,0.,24.0,1.,24.0,0.,24.0
1979-02-28 19:26:23.740 ,6,1,0.,24.0,0.,24.0,0.,24.0,0.,24.0
1979-02-28 19:26:47.740 ,7,1,3.,24.0,0.,24.0,1.,24.0,0.,24.0
1979-02-28 19:27:11.740 ,7,1,11.,24.0,0.,24.0,0.,24.0,0.,24.0
1979-02-28 19:27:35.740 ,6,1,4.,24.0,0.,24.0,2.,24.0,0.,24.0
1979-02-28 19:27:59.740 ,5,1,1.,24.0,0.,24.0,0.,24.0,0.,24.0
1979-02-28 19:28:23.740 ,4,1,0.,24.0,0.,24.0,0.,24.0,0.,24.0
1979-02-28 19:28:47.740 ,3,1,0.,24.0,0.,24.0,0.,24.0,0.,24.0
1979-02-28 19:29:11.740 ,2,1,0.,24.0,0.,24.0,0.,24.0,0.,24.0
1979-02-28 19:29:35.740 ,1,1,1.,24.0,0.,24.0,0.,24.0,0.,24.0
1979-02-28 19:29:59.740 ,0,1,0.,24.0,1.,24.0,0.,24.0,0.,24.0
1979-02-28 19:30:23.740 ,0,1,0.,24.0,0.,24.0,0.,24.0,0.,24.0
1979-02-28 19:30:47.740 ,1,1,0.,24.0,0.,24.0,0.,24.0,0.,24.0
1979-02-28 19:31:11.740 ,2,1,0.,24.0,1.,24.0,1.,24.0,0.,24.0
1979-02-28 19:31:35.740 ,3,1,0.,24.0,0.,24.0,0.,24.0,0.,24.0
1979-02-28 19:31:59.740 ,4,1,0.,24.0,1.,24.0,0.,24.0,0.,24.0
1979-02-28 19:32:23.740 ,5,1,0.,24.0,0.,24.0,0.,24.0,0.,24.0
1979-02-28 19:32:47.740 ,6,1,0.,24.0,0.,24.0,0.,24.0,0.,24.0
1979-02-28 19:33:11.740 ,7,1,1.,24.0,0.,24.0,0.,24.0,0.,24.0
1979-02-28 19:33:35.740 ,7,1,10.,24.0,0.,24.0,1.,24.0,0.,24.0
1979-02-28 19:33:59.740 ,6,1,5.,24.0,0.,24.0,0.,24.0,0.,24.0
1979-02-28 19:34:23.740 ,5,1,0.,24.0,0.,24.0,0.,24.0,0.,24.0
1979-02-28 19:34:47.740 ,4,1,0.,24.0,0.,24.0,0.,24.0,0.,24.0
1979-02-28 19:35:11.740 ,3,1,0.,24.0,0.,24.0,0.,24.0,0.,24.0
1979-02-28 19:35:35.740 ,2,1,0.,24.0,1.,24.0,0.,24.0,0.,24.0
1979-02-28 19:35:59.740 ,1,1,0.,24.0,0.,24.0,1.,24.0,0.,24.0
1979-02-28 19:36:23.740 ,0,1,0.,24.0,0.,24.0,0.,24.0,0.,24.0
1979-02-28 19:36:47.740 ,0,1,1.,24.0,0.,24.0,0.,24.0,0.,24.0
1979-02-28 19:37:11.740 ,1,1,0.,24.0,0.,24.0,0.,24.0,0.,24.0
1979-02-28 19:37:35.740 ,2,1,0.,24.0,0.,24.0,0.,24.0,0.,24.0
1979-02-28 19:37:59.740 ,3,1,0.,24.0,0.,24.0,0.,24.0,0.,24.0
1979-02-28 19:38:23.740 ,4,1,0.,24.0,0.,24.0,0.,24.0,0.,24.0
1979-02-28 19:38:47.740 ,5,1,0.,24.0,1.,24.0,1.,24.0,0.,24.0
1979-02-28 19:39:11.740 ,6,1,0.,24.0,0.,24.0,0.,24.0,0.,24.0
1979-02-28 19:39:35.740 ,7,1,5.,24.0,0.,24.0,0.,24.0,0.,24.0
1979-02-28 19:39:59.740 ,7,1,12.,24.0,0.,24.0,1.,24.0,0.,24.0
1979-02-28 19:40:23.740 ,6,1,8.,24.0,0.,24.0,0.,24.0,0.,24.0
1979-02-28 19:40:47.740 ,5,1,0.,24.0,0.,24.0,0.,24.0,0.,24.0
1979-02-28 19:41:11.740 ,4,1,0.,24.0,0.,24.0,0.,24.0,0.,24.0
1979-02-28 19:41:35.740 ,3,1,1.,24.0,0.,24.0,0.,24.0,0.,24.0
1979-02-28 19:41:59.740 ,2,1,0.,24.0,0.,24.0,0.,24.0,0.,24.0
1979-02-28 19:42:23.740 ,1,1,1.,24.0,0.,24.0,0.,24.0,0.,24.0
1979-02-28 19:42:47.740 ,0,1,0.,24.0,0.,24.0,0.,24.0,0.,24.0
1979-02-28 19:43:11.740 ,0,1,0.,24.0,0.,24.0,0.,24.0,0.,24.0
1979-02-28 19:43:35.740 ,1,1,1.,24.0,0.,24.0,0.,24.0,0.,24.0
1979-02-28 19:43:59.740 ,2,1,1.,24.0,0.,24.0,0.,24.0,0.,24.0
1979-02-28 19:44:23.740 ,3,1,1.,24.0,0.,24.0,0.,24.0,0.,24.0
1979-02-28 19:44:47.740 ,4,1,0.,24.0,0.,24.0,0.,24.0,0.,24.0
1979-02-28 19:45:11.740 ,5,1,0.,24.0,0.,24.0,0.,24.0,0.,24.0
1979-02-28 19:45:35.740 ,6,1,0.,24.0,0.,24.0,0.,24.0,0.,24.0
1979-02-28 19:45:59.740 ,7,1,2.,24.0,0.,24.0,0.,24.0,0.,24.0
1979-02-28 19:46:23.740 ,7,1,7.,24.0,0.,24.0,1.,24.0,0.,24.0
1979-02-28 19:46:47.740 ,6,1,10.,24.0,0.,24.0,0.,24.0,0.,24.0
1979-02-28 19:47:11.740 ,5,1,0.,24.0,0.,24.0,2.,24.0,0.,24.0
1979-02-28 19:47:35.740 ,4,1,0.,24.0,0.,24.0,0.,24.0,0.,24.0
1979-02-28 19:47:59.740 ,3,1,0.,24.0,0.,24.0,0.,24.0,0.,24.0
1979-02-28 19:48:23.740 ,2,1,0.,24.0,0.,24.0,0.,24.0,0.,24.0
1979-02-28 19:48:47.740 ,1,1,0.,24.0,1.,24.0,0.,24.0,0.,24.0
1979-02-28 19:49:11.740 ,0,1,1.,24.0,1.,24.0,0.,24.0,0.,24.0
1979-02-28 19:49:35.740 ,0,1,0.,24.0,1.,24.0,1.,24.0,0.,24.0
1979-02-28 19:49:59.740 ,1,1,0.,24.0,0.,24.0,0.,24.0,0.,24.0
1979-02-28 19:50:23.740 ,2,1,0.,24.0,0.,24.0,1.,24.0,0.,24.0
1979-02-28 19:50:47.740 ,3,1,1.,24.0,0.,24.0,2.,24.0,0.,24.0
1979-02-28 19:51:11.740 ,4,1,0.,24.0,0.,24.0,1.,24.0,0.,24.0
1979-02-28 19:51:35.740 ,5,1,0.,24.0,0.,24.0,0.,24.0,0.,24.0
1979-02-28 19:51:59.740 ,6,1,0.,24.0,0.,24.0,0.,24.0,0.,24.0
1979-02-28 19:52:23.740 ,7,1,1.,24.0,1.,24.0,0.,24.0,0.,24.0
1979-02-28 19:52:47.740 ,7,1,5.,24.0,0.,24.0,0.,24.0,0.,24.0
1979-02-28 19:53:11.740 ,6,1,6.,24.0,0.,24.0,0.,24.0,0.,24.0
1979-02-28 19:53:35.740 ,5,1,0.,24.0,0.,24.0,0.,24.0,0.,24.0
1979-02-28 19:53:59.740 ,4,1,0.,24.0,0.,24.0,0.,24.0,0.,24.0
1979-02-28 19:54:23.740 ,3,1,0.,24.0,0.,24.0,0.,24.0,0.,24.0
1979-02-28 19:54:47.740 ,2,1,0.,24.0,0.,24.0,0.,24.0,0.,24.0
1979-02-28 19:55:11.740 ,1,1,0.,24.0,0.,24.0,1.,24.0,0.,24.0
1979-02-28 19:55:35.740 ,0,1,0.,24.0,0.,24.0,0.,24.0,0.,24.0
1979-02-28 19:55:59.740 ,0,1,0.,24.0,0.,24.0,0.,24.0,0.,24.0
1979-02-28 19:56:23.740 ,1,1,0.,24.0,0.,24.0,1.,24.0,0.,24.0
1979-02-28 19:56:47.740 ,2,1,0.,24.0,0.,24.0,0.,24.0,0.,24.0
1979-02-28 19:57:11.740 ,3,1,1.,24.0,0.,24.0,1.,24.0,0.,24.0
1979-02-28 19:57:35.740 ,4,1,0.,24.0,0.,24.0,0.,24.0,0.,24.0
1979-02-28 19:57:59.740 ,5,1,1.,24.0,0.,24.0,0.,24.0,0.,24.0
1979-02-28 19:58:23.740 ,6,1,0.,24.0,0.,24.0,0.,24.0,0.,24.0
1979-02-28 19:58:47.740 ,7,1,3.,24.0,0.,24.0,1.,24.0,0.,24.0
1979-02-28 19:59:11.740 ,7,1,9.,24.0,0.,24.0,0.,24.0,0.,24.0
1979-02-28 19:59:35.740 ,6,1,8.,24.0,0.,24.0,0.,24.0,0.,24.0
1979-02-28 19:59:59.740 ,5,1,0.,24.0,0.,24.0,0.,24.0,0.,24.0
1979-02-28 20:00:23.740 ,4,1,0.,24.0,0.,24.0,1.,24.0,0.,24.0
1979-02-28 20:00:47.740 ,3,1,1.,24.0,0.,24.0,0.,24.0,0.,24.0
1979-02-28 20:01:11.740 ,2,1,0.,24.0,0.,24.0,0.,24.0,0.,24.0
1979-02-28 20:01:35.740 ,1,1,0.,24.0,0.,24.0,0.,24.0,0.,24.0
1979-02-28 20:01:59.740 ,0,1,0.,24.0,0.,24.0,0.,24.0,0.,24.0
1979-02-28 20:02:23.740 ,0,1,1.,24.0,0.,24.0,0.,24.0,0.,24.0
1979-02-28 20:02:47.740 ,1,1,1.,24.0,0.,24.0,0.,24.0,0.,24.0
1979-02-28 20:03:11.740 ,2,1,1.,24.0,0.,24.0,0.,24.0,0.,24.0
1979-02-28 20:03:35.740 ,3,1,0.,24.0,0.,24.0,0.,24.0,0.,24.0
1979-02-28 20:03:59.740 ,4,1,0.,24.0,0.,24.0,0.,24.0,0.,24.0
1979-02-28 20:04:23.740 ,5,1,0.,24.0,0.,24.0,1.,24.0,0.,24.0
1979-02-28 20:04:47.740 ,6,1,0.,24.0,0.,24.0,0.,24.0,0.,24.0
1979-02-28 20:05:11.740 ,7,1,2.,24.0,0.,24.0,1.,24.0,0.,24.0
1979-02-28 20:05:35.740 ,7,1,6.,24.0,0.,24.0,0.,24.0,0.,24.0
1979-02-28 20:05:59.740 ,6,1,7.,24.0,0.,24.0,0.,24.0,0.,24.0
1979-02-28 20:06:23.740 ,5,1,0.,24.0,0.,24.0,0.,24.0,0.,24.0
1979-02-28 20:06:47.740 ,4,1,0.,24.0,0.,24.0,0.,24.0,0.,24.0
1979-02-28 20:07:11.740 ,3,1,0.,24.0,0.,24.0,0.,24.0,0.,24.0
1979-02-28 20:07:35.740 ,2,1,0.,24.0,1.,24.0,1.,24.0,0.,24.0
1979-02-28 20:07:59.740 ,1,1,1.,24.0,1.,24.0,0.,24.0,0.,24.0
1979-02-28 20:08:23.740 ,0,1,0.,24.0,0.,24.0,0.,24.0,0.,24.0
1979-02-28 20:08:47.740 ,0,1,0.,24.0,0.,24.0,0.,24.0,0.,24.0
1979-02-28 20:09:11.740 ,1,1,0.,24.0,0.,24.0,0.,24.0,0.,24.0
1979-02-28 20:09:35.740 ,2,1,0.,24.0,0.,24.0,0.,24.0,0.,24.0
1979-02-28 20:09:59.740 ,3,1,2.,24.0,1.,24.0,1.,24.0,0.,24.0
1979-02-28 20:10:23.740 ,4,1,0.,24.0,0.,24.0,0.,24.0,0.,24.0
1979-02-28 20:10:47.740 ,5,1,0.,24.0,0.,24.0,0.,24.0,0.,24.0
1979-02-28 20:11:11.740 ,6,1,0.,24.0,0.,24.0,0.,24.0,0.,24.0
1979-02-28 20:11:35.740 ,7,1,1.,24.0,0.,24.0,0.,24.0,0.,24.0
1979-02-28 20:11:59.740 ,7,1,7.,24.0,0.,24.0,0.,24.0,0.,24.0
1979-02-28 20:12:23.740 ,6,1,18.,24.0,0.,24.0,0.,24.0,0.,24.0
1979-02-28 20:12:47.740 ,5,1,0.,24.0,0.,24.0,0.,24.0,0.,24.0
1979-02-28 20:13:11.740 ,4,1,0.,24.0,0.,24.0,0.,24.0,0.,24.0
1979-02-28 20:13:35.740 ,3,1,0.,24.0,0.,24.0,0.,24.0,0.,24.0
1979-02-28 20:13:59.740 ,2,1,0.,24.0,0.,24.0,1.,24.0,0.,24.0
1979-02-28 20:14:23.740 ,1,1,0.,24.0,0.,24.0,0.,24.0,0.,24.0
1979-02-28 20:14:47.740 ,0,1,0.,24.0,0.,24.0,0.,24.0,0.,24.0
1979-02-28 20:15:11.740 ,0,1,0.,24.0,0.,24.0,0.,24.0,0.,24.0
1979-02-28 20:15:35.740 ,1,1,1.,24.0,0.,24.0,0.,24.0,0.,24.0
1979-02-28 20:15:59.740 ,2,1,0.,24.0,0.,24.0,0.,24.0,0.,24.0
1979-02-28 20:16:23.740 ,3,1,0.,24.0,0.,24.0,0.,24.0,0.,24.0
1979-02-28 20:16:47.740 ,4,1,0.,24.0,0.,24.0,0.,24.0,0.,24.0
1979-02-28 20:17:11.740 ,5,1,0.,24.0,0.,24.0,1.,24.0,0.,24.0
1979-02-28 20:17:35.740 ,6,1,1.,24.0,0.,24.0,0.,24.0,0.,24.0
1979-02-28 20:17:59.740 ,7,1,1.,24.0,0.,24.0,0.,24.0,0.,24.0
1979-02-28 20:18:23.740 ,7,1,9.,24.0,0.,24.0,1.,24.0,0.,24.0
1979-02-28 20:18:47.740 ,6,1,9.,24.0,0.,24.0,0.,24.0,0.,24.0
1979-02-28 20:19:11.740 ,5,1,0.,24.0,0.,24.0,0.,24.0,0.,24.0
1979-02-28 20:19:35.740 ,4,1,0.,24.0,0.,24.0,0.,24.0,0.,24.0
1979-02-28 20:19:59.740 ,3,1,0.,24.0,0.,24.0,0.,24.0,0.,24.0
1979-02-28 20:20:23.740 ,2,1,0.,24.0,0.,24.0,0.,24.0,0.,24.0
1979-02-28 20:20:47.740 ,1,1,0.,24.0,0.,24.0,0.,24.0,0.,24.0
1979-02-28 20:21:11.740 ,0,1,0.,24.0,0.,24.0,0.,24.0,0.,24.0
1979-02-28 20:21:35.740 ,0,1,0.,24.0,0.,24.0,0.,24.0,0.,24.0
1979-02-28 20:21:59.740 ,1,1,0.,24.0,0.,24.0,1.,24.0,0.,24.0
1979-02-28 20:22:23.740 ,2,1,1.,24.0,0.,24.0,0.,24.0,0.,24.0
1979-02-28 20:22:47.740 ,3,1,0.,24.0,0.,24.0,0.,24.0,0.,24.0
1979-02-28 20:23:11.740 ,4,1,1.,24.0,0.,24.0,0.,24.0,0.,24.0
1979-02-28 20:23:35.740 ,5,1,0.,24.0,0.,24.0,0.,24.0,0.,24.0
1979-02-28 20:23:59.740 ,6,1,0.,24.0,0.,24.0,0.,24.0,0.,24.0
1979-02-28 20:24:23.740 ,7,1,3.,24.0,1.,24.0,0.,24.0,0.,24.0
1979-02-28 20:24:47.740 ,7,1,6.,24.0,0.,24.0,0.,24.0,0.,24.0
1979-02-28 20:25:11.740 ,6,1,7.,24.0,1.,24.0,0.,24.0,0.,24.0
1979-02-28 20:25:35.740 ,5,1,0.,24.0,0.,24.0,0.,24.0,0.,24.0
1979-02-28 20:25:59.740 ,4,1,0.,24.0,0.,24.0,0.,24.0,0.,24.0
1979-02-28 20:26:23.740 ,3,1,0.,24.0,0.,24.0,1.,24.0,0.,24.0
1979-02-28 20:26:47.740 ,2,1,0.,24.0,0.,24.0,0.,24.0,0.,24.0
1979-02-28 20:27:11.740 ,1,1,0.,24.0,0.,24.0,0.,24.0,0.,24.0
1979-02-28 20:27:35.740 ,0,1,0.,24.0,1.,24.0,1.,24.0,0.,24.0
1979-02-28 20:27:59.740 ,0,1,0.,24.0,0.,24.0,1.,24.0,0.,24.0
1979-02-28 20:28:23.740 ,1,1,2.,24.0,0.,24.0,0.,24.0,0.,24.0
1979-02-28 20:28:47.740 ,2,1,0.,24.0,0.,24.0,0.,24.0,0.,24.0
1979-02-28 20:29:11.740 ,3,1,0.,24.0,0.,24.0,0.,24.0,0.,24.0
1979-02-28 20:29:35.740 ,4,1,0.,24.0,0.,24.0,0.,24.0,0.,24.0
1979-02-28 20:29:59.740 ,5,1,1.,24.0,0.,24.0,0.,24.0,0.,24.0
1979-02-28 20:30:23.740 ,6,1,0.,24.0,0.,24.0,1.,24.0,0.,24.0
1979-02-28 20:30:47.740 ,7,1,1.,24.0,0.,24.0,0.,24.0,0.,24.0
1979-02-28 20:31:11.740 ,7,1,8.,24.0,0.,24.0,0.,24.0,0.,24.0
1979-02-28 20:31:35.740 ,6,1,7.,24.0,0.,24.0,1.,24.0,0.,24.0
1979-02-28 20:31:59.740 ,5,1,0.,24.0,0.,24.0,0.,24.0,0.,24.0
1979-02-28 20:32:23.740 ,4,1,0.,24.0,0.,24.0,0.,24.0,0.,24.0
1979-02-28 20:32:47.740 ,3,1,0.,24.0,0.,24.0,0.,24.0,0.,24.0
1979-02-28 20:33:11.740 ,2,1,0.,24.0,0.,24.0,1.,24.0,0.,24.0
1979-02-28 20:33:35.740 ,1,1,0.,24.0,0.,24.0,0.,24.0,0.,24.0
1979-02-28 20:33:59.740 ,0,1,0.,24.0,0.,24.0,1.,24.0,0.,24.0
1979-02-28 20:34:23.750 ,0,1,0.,24.0,0.,24.0,0.,24.0,0.,24.0
1979-02-28 20:34:47.750 ,1,1,1.,24.0,0.,24.0,0.,24.0,0.,24.0
1979-02-28 20:35:11.750 ,2,1,0.,24.0,1.,24.0,1.,24.0,0.,24.0
1979-02-28 20:35:35.750 ,3,1,0.,24.0,0.,24.0,1.,24.0,0.,24.0
1979-02-28 20:35:59.750 ,4,1,0.,24.0,0.,24.0,1.,24.0,0.,24.0
1979-02-28 20:36:23.750 ,5,1,0.,24.0,0.,24.0,0.,24.0,0.,24.0
1979-02-28 20:36:47.750 ,6,1,0.,24.0,0.,24.0,0.,24.0,0.,24.0
1979-02-28 20:37:11.750 ,7,1,5.,24.0,0.,24.0,0.,24.0,0.,24.0
1979-02-28 20:37:35.750 ,7,1,7.,24.0,0.,24.0,0.,24.0,0.,24.0
1979-02-28 20:37:59.750 ,6,1,7.,24.0,0.,24.0,0.,24.0,0.,24.0
1979-02-28 20:38:23.750 ,5,1,1.,24.0,0.,24.0,1.,24.0,0.,24.0
1979-02-28 20:38:47.750 ,4,1,0.,24.0,0.,24.0,0.,24.0,0.,24.0